COSMOS 2544 [GLONASS-M] (44850 NORAD) Tracking and Keplerian Element Data

This shows tracking and keplerian element data for the satellite.

Feedback or suggestion? Click here.




ElementValue
Catalog44850
NameCOSMOS 2544 [GLONASS-M]
Epoch Orbit90
Epoch Day22.87472439
Epoch Year2020
RAAN152.0459
Inclination64.8345
Eccentricity0.0009704
Argument of Perigee264.4091
Mean Anonmoly271.701
Mean Motion2.13102248
Decay Rate-1.9E-07
L11 44850U 19088A 20022.87472439 -.00000019 00000-0 00000+0 0 9997
L22 44850 64.8345 152.0459 0009704 264.4091 271.7010 2.13102248 905

Live tracking and technical data element details for COSMOS 2544 [GLONASS-M] (NORAD 44850). COSMOS 2544 [GLONASS-M] can be tracked NOW for your location showing map with azimuth and elevation plus other details from your city location.

Track the satellite on the map from your city or location and see movement details for azimuth, elevation, latitude, longitude, range, height, and movement on the map or in text.







IsCatalogInMostPopularTable: catalog: 44850, numindb: 9
Update: records affected: 1



GetName: 44850 COSMOS 2544 [GLONASS-M]

Hit Count: updated at: Fri, 24 Jan 2020 10:25:54 GMT